TAF and METAR

Decoding for American and Canadian METARs and TAFs is not fully implemented.

Could not understand the following METAR

K0CO 280615Z AUTO 06011G17KT 10SM CLR M07/M18 A3019 RMK AO2 PWINO
No TAF available for Empire
Empire in United States of America at 3807m

Latest 5 airports